Location: *
(46.0770°N, 1.6444°E)
Time: 10:55:37
(UTC+00:00)

Cosmos 2219 Rocket - Pass Details

Date: 16 September 2019
Orbit: 829 x 845 km, 71.0° (Epoch: 21 October)

Event Time Altitude Azimuth Distance (km) Brightness Sun altitude
Rises 19:06:43 0° 334° (NNW) 3,381 6.0 -11.6°
Reaches altitude 10° 19:09:10 10° 337° (NNW) 2,445 5.2 -12.0°
Maximum altitude 19:14:46 74° 62° (ENE) 866 2.1 -12.9°
Enters shadow 19:20:04 12° 148° (SSE) 2,328 4.0 -13.8°
